Wind_Speed
17 17 17 18 18 19 19 20 21 21 22 22 22 22 23 23 24 23 23 24 23 21 21 20 20 18 17 16 16 15 15 15 14 14 14 15 16 16 16 17 17 16 16
18 18 18 18 19 19 19 19 20 21 22 22 22 23 24 25 26 25 24 24 23 23 22 21 21 20 19 18 17 17 16 16 16 15 15 15 15 16 15 16 16 16 16
18 18 19 19 19 19 19 18 18 19 20 21 22 22 23 25 26 26 26 25 25 25 24 22 22 21 20 19 19 19 18 18 18 17 16 15 15 15 15 16 16 16 16
18 19 19 19 19 19 19 18 18 18 19 20 21 22 23 24 25 27 28 27 26 26 26 24 23 22 22 20 20 20 19 19 18 18 17 16 16 16 15 16 16 16 16
19 19 19 19 19 18 18 18 17 17 18 18 20 21 23 24 25 26 28 28 28 28 28 26 24 23 23 22 21 20 20 20 19 18 18 18 17 16 16 16 16 16 16
19 19 19 19 19 18 17 16 16 16 17 17 18 19 21 23 24 26 28 29 29 29 28 28 26 24 24 23 23 22 22 21 21 20 19 19 18 18 17 17 16 17 17
19 19 19 19 18 17 16 15 14 15 15 16 17 18 19 21 23 25 27 28 29 29 30 30 28 27 25 25 24 23 23 22 22 21 20 20 19 19 18 18 17 18 18
19 19 19 19 17 17 16 15 14 13 14 15 16 16 18 19 21 24 26 27 29 30 31 31 30 28 27 26 26 25 24 24 23 23 21 21 20 20 19 19 18 18 18
19 19 19 19 18 17 16 15 13 13 13 13 14 15 17 18 20 23 25 26 28 29 30 31 30 30 29 28 27 26 26 25 25 24 23 22 21 21 21 20 19 19 19
19 19 19 18 18 17 16 14 13 12 11 12 14 15 16 18 19 22 24 25 27 28 29 30 30 30 30 29 28 27 27 26 26 25 24 24 23 22 22 22 21 20 20
18 19 19 18 18 17 16 14 13 11 10 11 12 14 16 17 19 20 23 25 27 28 28 29 30 30 31 30 29 28 28 28 26 26 25 25 25 24 24 23 22 22 22
18 18 18 18 17 16 16 15 13 10 9 9 10 11 13 15 18 19 21 24 26 26 28 29 30 30 30 30 30 29 28 29 29 27 26 26 26 25 25 24 23 24 24
18 18 18 18 17 16 15 15 13 10 8 7 8 9 12 14 16 18 20 22 24 26 27 28 30 31 30 30 31 30 29 29 29 29 27 27 26 26 25 25 25 25 25
18 18 18 18 17 16 15 14 12 10 8 6 5 7 9 12 14 16 19 21 23 24 25 27 29 30 30 30 31 30 30 30 30 29 29 28 28 27 27 26 26 26 26
17 17 18 17 17 16 14 13 12 10 8 6 5 5 8 10 13 14 17 19 22 23 24 25 27 29 29 30 30 30 30 30 30 30 29 29 29 28 28 28 28 27 27
17 17 17 17 16 15 14 13 12 10 8 6 5 4 6 8 11 12 15 18 20 22 23 24 25 26 27 29 29 29 29 29 30 30 30 30 30 30 29 29 29 29 29
18 17 17 16 15 15 14 13 12 10 8 7 5 5 5 7 9 11 14 16 18 20 22 22 23 25 26 27 27 28 29 29 30 30 30 30 30 30 30 30 30 30 30
19 18 17 16 15 14 14 13 12 10 9 7 6 6 6 7 8 10 13 15 17 19 20 21 22 23 25 25 26 27 27 28 29 29 29 29 30 30 30 30 29 29 30
19 19 18 17 16 15 14 13 12 10 9 8 7 6 7 8 8 10 11 14 16 18 20 20 21 22 24 24 25 26 27 27 28 29 29 29 29 30 30 29 29 29 30
20 20 19 18 17 16 15 14 13 11 9 9 8 7 7 8 8 10 11 13 15 17 18 19 20 21 22 23 24 25 26 26 27 27 28 29 28 28 28 29 29 29 29
22 21 20 19 17 16 15 14 13 12 10 9 9 8 8 9 9 10 12 13 14 15 17 18 19 19 20 21 22 24 25 24 25 26 27 28 28 28 27 28 28 29 29
23 23 22 21 19 18 16 15 14 13 12 10 9 9 8 8 9 10 11 12 13 14 16 17 18 18 19 20 21 23 24 24 25 26 27 27 28 28 29 29 29 29 28
25 24 24 23 22 20 19 17 16 15 14 13 11 11 10 10 10 10 11 12 13 14 14 16 17 18 19 19 20 22 23 23 24 25 26 27 27 27 27 28 28 29 29
28 27 26 25 24 23 21 20 18 17 16 15 14 13 12 12 12 12 12 12 13 14 14 15 16 17 18 19 19 20 21 22 23 23 24 26 26 26 26 26 27 29 30
30 29 28 27 26 25 24 23 21 20 19 18 17 16 15 14 14 14 14 14 14 15 16 16 17 17 18 19 19 20 20 21 21 22 22 24 24 25 25 26 27 28 28
33 32 31 30 29 28 27 26 24 23 21 21 20 19 18 17 15 15 16 15 15 16 17 17 18 18 19 20 20 21 21 21 22 22 23 23 24 24 25 25 26 27 27
Wind_Direction
315 314 311 306 300 293 289 285 278 270 265 259 254 249 243 239 237 233 226 224 223 221 220 219 216 214 212 210 203 198 195 190 188 188 186 188 188 186 188 188 188 190 192
318 316 314 309 303 297 292 287 281 271 266 260 254 250 244 242 237 235 227 222 221 220 219 218 214 213 213 210 203 200 199 194 193 192 190 190 190 190 192 195 194 195 198
320 317 315 312 307 302 297 291 283 275 268 260 253 250 246 242 236 232 226 221 220 219 218 217 214 212 211 210 207 204 203 198 197 196 195 193 193 195 200 202 200 201 203
322 321 318 315 311 305 300 294 285 277 270 262 254 248 245 240 234 230 225 222 220 218 217 216 215 214 213 211 209 207 204 201 200 200 199 199 199 201 205 206 206 207 210
326 325 322 319 316 310 304 296 287 278 270 262 255 248 243 239 234 227 224 223 221 218 217 216 215 215 215 212 210 208 207 206 205 204 203 204 204 205 207 208 210 212 213
330 329 327 323 320 316 309 302 290 280 271 262 254 247 241 238 233 225 222 221 220 218 217 216 215 216 216 213 211 210 209 208 207 208 208 208 208 209 210 212 214 216 217
332 332 331 328 325 321 315 307 295 284 274 263 254 247 241 237 231 224 222 220 219 218 217 216 216 217 217 214 212 213 210 210 210 209 209 210 211 213 213 215 217 219 219
334 334 334 333 330 326 321 313 299 289 276 264 255 248 241 234 228 224 221 219 219 218 218 216 217 218 219 216 214 213 211 212 213 212 211 213 214 216 217 218 219 221 222
336 335 336 336 333 329 325 318 307 292 279 265 254 246 240 236 228 223 221 219 218 218 218 216 218 219 217 216 215 214 214 215 214 214 215 216 215 217 219 220 221 223 225
336 337 338 338 337 334 330 325 316 299 283 268 254 245 238 233 226 222 221 220 218 218 218 218 218 219 218 217 217 217 217 217 217 216 217 218 218 219 221 222 224 226 229
337 338 340 341 341 339 336 331 324 307 289 273 258 246 239 233 226 222 222 220 219 218 219 218 218 219 219 219 220 220 221 219 220 220 220 221 221 223 224 225 227 229 231
335 338 340 343 343 342 342 340 333 320 302 281 261 248 238 231 227 223 220 219 219 219 219 218 218 219 219 219 220 221 223 222 222 223 224 225 226 226 226 228 231 233 234
333 337 340 343 343 343 343 344 344 333 316 294 271 251 239 230 226 222 220 218 218 220 219 219 219 219 219 221 221 223 222 222 223 225 226 227 229 230 231 232 235 237 238
330 333 338 341 342 342 343 344 347 344 333 314 286 255 241 231 227 224 220 219 219 219 219 220 220 222 222 223 221 224 224 224 225 226 227 228 230 233 235 238 238 240 242
326 328 331 336 339 341 341 342 343 343 340 325 295 263 241 231 226 224 220 221 221 220 220 221 222 224 225 224 222 223 224 224 224 225 228 229 231 235 238 240 241 243 245
324 324 325 328 333 336 337 339 340 338 337 329 303 272 242 232 226 223 220 221 222 220 221 222 222 224 225 223 222 223 224 226 227 228 231 233 234 237 240 241 242 244 246
320 322 321 322 326 330 331 332 332 330 328 325 306 277 252 237 229 224 220 220 220 220 223 223 224 225 223 221 223 225 227 228 229 230 232 234 236 238 241 243 245 247 248
314 316 316 317 319 321 325 326 325 322 317 313 302 279 258 246 235 227 224 222 221 222 222 223 223 224 224 224 226 227 228 229 229 231 233 235 237 239 242 245 247 248 250
308 311 311 311 311 312 315 318 319 317 312 307 299 286 261 246 238 230 225 223 221 220 221 222 221 223 225 227 227 228 229 231 232 233 233 235 238 241 243 245 248 250 251
302 304 306 307 306 305 306 307 307 308 303 298 292 283 269 254 242 233 229 227 223 221 221 222 222 225 226 229 230 231 231 232 233 233 236 238 239 242 244 245 248 251 252
297 297 298 300 301 301 300 300 297 298 295 290 285 277 268 255 248 239 232 228 224 223 223 223 224 225 226 229 231 232 234 235 235 236 237 239 240 243 245 247 250 252 252
292 292 292 292 293 293 292 293 292 291 289 285 281 274 266 256 247 239 232 227 224 224 224 225 225 226 228 229 230 232 235 237 237 237 238 241 243 245 247 249 251 253 253
287 286 286 286 286 285 284 284 283 282 281 278 275 270 263 258 252 242 234 230 228 228 227 226 226 227 228 229 232 233 234 237 238 240 240 241 243 247 248 249 251 253 255
284 283 281 280 280 279 278 277 276 275 273 272 269 266 261 256 253 248 240 235 232 230 229 229 228 230 231 234 236 236 235 238 240 242 244 245 246 247 250 252 253 255 257
280 279 277 276 275 274 273 271 270 269 268 267 265 262 259 256 253 249 243 241 238 236 234 235 235 234 234 236 237 239 241 242 242 245 247 247 248 250 252 253 255 257 259
276 274 273 271 270 269 268 267 266 264 263 262 261 259 257 256 254 252 248 246 243 240 239 239 238 238 239 241 240 241 242 244 245 248 249 249 251 253 254 255 257 259 260
Height
5833 5831 5828 5826 5824 5822 5821 5819 5818 5818 5818 5819 5819 5821 5823 5825 5827 5829 5832 5836 5839 5841 5844 5846 5849 5851 5853 5855 5858 5860 5862 5864 5866 5868 5870 5872 5874 5876 5879 5882 5884 5886 5889
5830 5828 5825 5822 5820 5818 5816 5815 5813 5813 5813 5813 5814 5816 5818 5820 5822 5825 5828 5831 5835 5838 5840 5843 5846 5849 5851 5853 5856 5858 5861 5863 5865 5868 5870 5872 5874 5876 5879 5881 5884 5886 5888
5827 5824 5821 5818 5816 5813 5811 5810 5808 5808 5807 5808 5809 5811 5812 5814 5817 5820 5823 5827 5830 5833 5837 5840 5843 5846 5848 5851 5854 5856 5859 5861 5864 5866 5869 5871 5873 5876 5878 5880 5883 5885 5887
5824 5821 5818 5815 5812 5809 5807 5805 5804 5803 5802 5803 5804 5805 5807 5809 5812 5815 5818 5822 5825 5829 5833 5836 5839 5843 5845 5848 5851 5854 5857 5860 5862 5865 5868 5870 5872 5875 5877 5879 5882 5884 5886
5821 5818 5814 5811 5808 5805 5803 5801 5799 5798 5798 5798 5798 5800 5801 5804 5806 5809 5813 5817 5820 5824 5828 5832 5836 5839 5842 5845 5848 5851 5854 5857 5860 5863 5866 5868 5871 5873 5876 5878 5880 5883 5885
5818 5815 5811 5808 5805 5802 5799 5796 5795 5794 5793 5793 5794 5795 5796 5799 5801 5804 5808 5812 5816 5820 5824 5828 5832 5835 5839 5842 5845 5848 5852 5855 5858 5861 5864 5866 5869 5872 5874 5876 5878 5881 5883
5816 5812 5809 5805 5802 5798 5795 5793 5791 5790 5789 5789 5790 5791 5792 5794 5796 5799 5803 5807 5811 5815 5819 5824 5828 5831 5835 5838 5842 5845 5848 5852 5855 5858 5861 5864 5867 5869 5872 5874 5876 5879 5881
5814 5810 5806 5802 5799 5795 5792 5790 5787 5786 5785 5785 5785 5786 5788 5791 5792 5795 5798 5802 5806 5810 5815 5819 5823 5827 5831 5834 5838 5842 5845 5848 5851 5855 5858 5861 5864 5867 5869 5872 5874 5876 5879
5812 5808 5804 5800 5796 5793 5790 5787 5784 5782 5782 5781 5782 5783 5784 5786 5788 5791 5794 5798 5802 5805 5810 5814 5819 5822 5826 5830 5834 5838 5841 5844 5848 5851 5854 5857 5860 5863 5866 5868 5871 5873 5876
5810 5806 5802 5798 5794 5791 5787 5784 5781 5779 5778 5778 5778 5779 5780 5782 5784 5787 5790 5793 5797 5801 5805 5809 5814 5818 5822 5825 5829 5833 5837 5841 5844 5847 5850 5853 5857 5860 5863 5865 5868 5870 5872
5808 5804 5800 5796 5793 5789 5785 5782 5779 5777 5775 5775 5775 5775 5777 5778 5780 5783 5786 5789 5793 5796 5800 5804 5809 5813 5817 5821 5825 5829 5833 5837 5840 5843 5846 5849 5853 5856 5859 5861 5864 5867 5869
5806 5802 5799 5795 5791 5787 5784 5780 5777 5775 5773 5772 5772 5772 5773 5775 5777 5779 5782 5785 5788 5792 5796 5800 5804 5808 5812 5816 5820 5824 5828 5832 5836 5839 5842 5845 5848 5851 5854 5857 5860 5862 5864
5805 5801 5797 5793 5790 5786 5783 5779 5776 5774 5772 5770 5770 5770 5771 5772 5773 5776 5778 5781 5784 5788 5792 5795 5799 5803 5807 5811 5815 5819 5823 5827 5831 5834 5837 5841 5844 5847 5849 5852 5855 5857 5859
5803 5799 5796 5792 5789 5785 5782 5779 5776 5773 5771 5769 5769 5768 5768 5769 5770 5772 5775 5777 5781 5784 5788 5791 5795 5798 5802 5806 5810 5814 5818 5822 5825 5829 5832 5836 5839 5842 5845 5847 5850 5852 5854
5801 5798 5794 5791 5788 5784 5781 5778 5775 5773 5771 5769 5768 5767 5767 5767 5768 5770 5772 5774 5777 5780 5784 5787 5790 5794 5798 5802 5805 5809 5813 5817 5820 5824 5827 5830 5834 5836 5839 5842 5844 5846 5848
5799 5796 5792 5789 5786 5783 5780 5777 5775 5772 5770 5768 5767 5766 5766 5766 5767 5768 5769 5771 5774 5777 5780 5783 5786 5789 5793 5797 5800 5804 5807 5811 5815 5819 5822 5825 5828 5831 5833 5835 5838 5840 5842
5796 5793 5790 5787 5785 5782 5779 5776 5774 5771 5770 5768 5767 5766 5765 5765 5765 5766 5767 5769 5771 5773 5776 5779 5782 5785 5789 5792 5796 5799 5802 5806 5809 5813 5816 5819 5822 5824 5827 5829 5831 5833 5835
5794 5791 5788 5785 5783 5780 5778 5775 5773 5770 5768 5767 5766 5765 5764 5764 5764 5764 5765 5766 5768 5770 5773 5776 5778 5781 5784 5788 5791 5794 5797 5800 5804 5807 5810 5813 5815 5818 5820 5822 5824 5826 5828
5791 5788 5785 5783 5780 5778 5776 5773 5771 5769 5767 5765 5764 5763 5762 5762 5762 5762 5763 5764 5765 5767 5770 5772 5775 5777 5780 5783 5786 5789 5792 5795 5798 5801 5804 5806 5809 5812 5814 5816 5818 5819 5821
5787 5784 5782 5780 5777 5775 5773 5771 5769 5767 5765 5764 5763 5761 5761 5760 5760 5760 5761 5762 5763 5764 5766 5768 5771 5773 5776 5778 5781 5784 5787 5789 5792 5795 5798 5800 5803 5805 5807 5809 5811 5812 5813
5782 5780 5778 5776 5774 5772 5770 5768 5766 5765 5763 5762 5760 5759 5759 5758 5758 5758 5759 5759 5760 5761 5763 5765 5767 5770 5772 5774 5777 5779 5782 5784 5787 5789 5792 5794 5797 5799 5800 5802 5804 5805 5806
5776 5774 5773 5771 5769 5768 5766 5765 5763 5762 5760 5759 5758 5757 5756 5756 5756 5756 5756 5756 5757 5759 5760 5762 5764 5766 5768 5770 5772 5774 5777 5779 5782 5784 5786 5788 5790 5792 5793 5795 5796 5797 5799
5769 5768 5767 5765 5764 5763 5762 5760 5759 5758 5757 5756 5755 5754 5753 5753 5753 5753 5753 5754 5754 5755 5757 5758 5760 5761 5763 5765 5767 5769 5771 5773 5776 5778 5779 5781 5783 5785 5786 5787 5789 5790 5791
5761 5760 5759 5758 5757 5757 5756 5755 5754 5753 5752 5751 5751 5750 5750 5750 5749 5750 5750 5750 5751 5752 5753 5755 5756 5757 5759 5760 5762 5764 5766 5768 5770 5771 5773 5775 5776 5778 5779 5780 5781 5783 5784
5751 5751 5750 5750 5749 5749 5749 5748 5747 5747 5746 5746 5746 5746 5745 5745 5745 5746 5746 5746 5747 5748 5749 5750 5751 5753 5754 5755 5757 5759 5761 5762 5764 5765 5767 5769 5770 5771 5772 5773 5774 5775 5776
5740 5740 5740 5740 5740 5740 5740 5740 5740 5740 5740 5740 5740 5740 5740 5740 5740 5741 5741 5742 5742 5743 5744 5746 5747 5748 5749 5750 5752 5753 5755 5757 5758 5760 5761 5762 5763 5764 5766 5767 5767 5768 5768